This is the latest recevied weather packets stored in our database for station/object BYNCTR-WX. If no packets are shown the sender has not sent any weather packets the latest 1 day(s).
| Time | Temp. | Humidity | Pressure | Rain* | Wind** | Luminosity | Snow |
|---|---|---|---|---|---|---|---|
| 1778049086 | 5° C | 69% | 983.1 hPa | 0 mm | - | - | - |
| 1778048168 | 5.56° C | 69% | 983.1 hPa | 0 mm | - | - | - |
| 1778047317 | 5.56° C | 69% | 983.1 hPa | 0 mm | - | - | - |
| 1778046370 | 5.56° C | 69% | 983.8 hPa | 0 mm | - | - | - |
| 1778045483 | 5.56° C | 68% | 983 hPa | 0 mm | - | - | - |
| 1778043706 | 6.11° C | 68% | 983 hPa | 0 mm | - | - | - |
| 1778042769 | 6.11° C | 61% | 983.9 hPa | 0 mm | - | - | - |
| 1778041884 | 6.11° C | 62% | 983.3 hPa | 0 mm | - | - | - |
| 1778040968 | 6.67° C | 62% | 983.3 hPa | 0 mm | - | - | - |
| 1778040110 | 6.67° C | 62% | 983.3 hPa | 0 mm | - | - | - |
| 1778039166 | 6.67° C | 57% | 983 hPa | 0 mm | - | - | - |
| 1778037368 | 6.67° C | 58% | 983 hPa | 0 mm | - | - | - |
| 1778036514 | 6.67° C | 58% | 983 hPa | 0 mm | - | - | - |
| 1778035567 | 7.22° C | 49% | 983.1 hPa | 0 mm | - | - | - |
| 1778034685 | 7.22° C | 45% | 983 hPa | 0 mm | - | - | - |
| 1778031089 | 7.78° C | 40% | 982.8 hPa | 0 mm | - | - | - |
| 1778030166 | 8.89° C | 40% | 982.9 hPa | 0 mm | - | - | - |
| 1778029296 | 8.89° C | 40% | 982.9 hPa | 0 mm | - | - | - |
| 1778027480 | 10° C | 35% | 982.9 hPa | 0 mm | - | - | - |
| 1778022096 | 11.11° C | 33% | 982.8 hPa | 0 mm | - | - | - |
* Rain latest hour (hover to see other rain measurements)
** Current wind speed in m/s (hover to see current wind gust speed)